Location: Unspecified
(0.0000°N, 0.0000°E)
Time: 04:33:19
(UTC+00:00)

A-11 Canister half - All Passes

Search period start: 01 July 2016 00:00
Search period end: 11 July 2016 00:00
Orbit: 1526 x 1683 km, 47.3° (Epoch: 29 June)

Date Brightness Start Highest point End Pass type
(mag) Time Alt. Az. Time Alt. Az. Time Alt. Az.
01 Jul - 05:56:38 10° S 06:03:17 19° SE 06:09:48 10° E daylight
01 Jul - 07:58:28 10° SW 08:08:37 88° NW 08:18:27 10° NE daylight
01 Jul - 10:07:52 10° W 10:13:47 17° NW 10:19:38 10° N daylight
01 Jul - 18:46:12 10° NNW 18:54:46 41° NE 19:03:29 10° ESE visible
01 Jul - 20:50:53 10° WNW 20:59:33 42° SW 21:08:33 10° SSE visible
02 Jul - 05:35:24 10° S 05:41:37 18° SE 05:47:44 10° E visible
02 Jul - 07:36:51 10° SW 07:47:01 87° SE 07:56:53 10° NE daylight
02 Jul - 09:45:45 10° W 09:52:09 19° NW 09:58:29 10° N daylight
02 Jul - 18:24:48 10° NNW 18:33:11 38° NE 18:41:43 10° ESE visible
02 Jul - 20:29:11 10° WNW 20:37:59 45° SW 20:47:04 10° SSE visible
03 Jul - 05:14:13 10° S 05:19:57 16° SE 05:25:36 10° E visible
03 Jul - 07:15:15 10° SW 07:25:26 82° SE 07:35:18 10° NE daylight
03 Jul - 09:23:41 10° W 09:30:31 21° NW 09:37:16 10° N daylight
03 Jul - 18:03:24 10° NNW 18:11:36 35° NE 18:19:56 10° ESE daylight
03 Jul - 20:07:31 10° WNW 20:16:24 49° SW 20:25:35 10° SSE visible
04 Jul - 04:53:06 10° SSE 04:58:17 15° SE 05:03:24 10° ESE visible
04 Jul - 06:53:41 10° SW 07:03:50 77° SE 07:13:42 10° NE daylight
04 Jul - 09:01:40 10° W 09:08:54 22° NW 09:16:01 10° N daylight
04 Jul - 17:42:02 10° N 17:50:02 32° NE 17:58:08 10° ESE daylight
04 Jul - 19:45:51 10° NW 19:54:49 52° SW 20:04:05 10° SSE visible
05 Jul - 04:32:04 10° SSE 04:36:36 14° SE 04:41:05 10° ESE visible
05 Jul - 06:32:05 10° SSW 06:42:14 73° SE 06:52:06 10° NE daylight
05 Jul - 08:39:42 10° W 08:47:16 24° NW 08:54:44 10° N daylight
05 Jul - 17:20:40 10° N 17:28:27 30° NE 17:36:19 10° ESE daylight
05 Jul - 19:24:12 10° NW 19:33:15 56° SW 19:42:35 10° SSE visible
06 Jul - 04:11:11 10° SSE 04:14:55 12° SE 04:18:37 10° ESE visible
06 Jul - 06:10:32 10° SSW 06:20:38 68° SE 06:30:29 10° NE daylight
06 Jul - 08:17:45 10° WSW 08:25:39 26° NW 08:33:25 10° N daylight
06 Jul - 16:59:19 10° N 17:06:53 28° NE 17:14:29 10° ESE daylight
06 Jul - 19:02:34 10° NW 19:11:41 60° SW 19:21:04 10° SSE visible
07 Jul - 03:50:35 10° SSE 03:53:13 11° SE 03:55:51 10° ESE visible
07 Jul - 05:48:59 10° SSW 05:59:02 64° SE 06:08:50 10° NE daylight
07 Jul - 07:55:50 10° WSW 08:04:02 28° NW 08:12:05 10° N daylight
07 Jul - 16:37:59 10° N 16:45:17 26° NE 16:52:36 10° E daylight
07 Jul - 18:40:57 10° NW 18:50:07 64° SW 18:59:33 10° SSE visible
07 Jul - 20:54:19 10° SW 20:55:46 10° SW 20:57:13 10° SW visible
08 Jul - 05:27:26 10° SSW 05:37:25 60° SE 05:47:11 10° NE visible
08 Jul - 07:33:57 10° WSW 07:42:25 31° NW 07:50:43 10° N daylight
08 Jul - 16:16:41 10° N 16:23:41 24° NE 16:30:43 10° E daylight
08 Jul - 18:19:20 10° NW 18:28:33 69° SW 18:38:01 10° SSE visible
08 Jul - 20:31:14 10° WSW 20:34:06 12° SW 20:36:59 10° SSW visible
09 Jul - 05:05:55 10° SSW 05:15:49 56° SE 05:25:31 10° NE visible
09 Jul - 07:12:06 10° WSW 07:20:48 33° NW 07:29:21 10° N daylight
09 Jul - 15:55:24 10° N 16:02:06 22° NE 16:08:48 10° E daylight
09 Jul - 17:57:45 10° NW 18:07:00 74° SW 18:16:28 10° SSE daylight
09 Jul - 20:08:42 10° WSW 20:12:26 13° SW 20:16:13 10° SSW visible
10 Jul - 04:44:24 10° SSW 04:54:12 52° SE 05:03:50 10° NE visible
10 Jul - 06:50:16 10° WSW 06:59:11 35° NW 07:07:58 10° NNE daylight
10 Jul - 15:34:09 10° N 15:40:30 20° NE 15:46:50 10° E daylight
10 Jul - 17:36:09 10° NW 17:45:27 79° SW 17:54:55 10° SE daylight
10 Jul - 19:46:23 10° WSW 19:50:47 14° SW 19:55:16 10° SSW visible
